,

(GMT )
Banff

Weather History for CWZG - April, 2013

Change the Weather History Date:

Wednesday, April 3, 2013

  Actual Average Record
Temperature  
Mean Temperature 38 °F -  
Max Temperature 46 °F - - ()
Min Temperature 30 °F - - ()
Degree Days  
Heating Degree Days 26    
Moisture  
Dew Point 28 °F    
Average Humidity 74    
Maximum Humidity 87    
Minimum Humidity 43    
Precipitation  
Precipitation 0.04 in - - ()
Sea Level Pressure  
Sea Level Pressure 30.08 in    
Wind  
Wind Speed 5 mph ()    
Max Wind Speed 10 mph    
Max Gust Speed 21 mph    
T = Trace of Precipitation, MM = Missing Value Source: Averaged Metar Reports

Daily Weather History Graph

Daily Weather History Graph

Search for Another Location

Airport or City:

Trip Planner

Search our weather history database for the weather conditions in past years. The results will help you decide how hot, cold, wet, or windy it might be!

Date:

Astronomy

Apr. 03, 2013 Rise Set
Actual Time 7:12 AM MDT 8:19 PM MDT
Civil Twilight 6:38 AM MDT 8:53 PM MDT
Nautical Twilight 5:57 AM MDT 9:34 PM MDT
Astronomical Twilight 5:13 AM MDT 10:18 PM MDT
Moon 3:39 AM MDT (4/3) 12:54 PM MDT (4/3)
Length of Visible Light 14h 14m
Length of Day
13h 06m
Last Quarter, 44% of the Moon is Illuminated
Apr 3
Last Quarter
Apr 10
New
Apr 18
First Quarter
Apr 25
Full
May 2
Last Quarter

Hourly Weather History & Observations

Time (MDT) Temp. Windchill Dew Point Humidity Pressure Visibility Wind Dir Wind Speed Gust Speed Precip Events Conditions
12:00 AM 46.8 °F - 25.5 °F 43% 29.89 in - WSW 4.6 mph - N/A   Unknown
1:00 AM 45.1 °F 43.7 °F 25.9 °F 47% 29.90 in - WSW 3.5 mph - N/A   Unknown
2:00 AM 43.3 °F 41.7 °F 26.4 °F 51% 29.91 in - SW 3.5 mph - N/A   Unknown
3:00 AM 42.6 °F 40.9 °F 27.0 °F 54% 29.91 in - SSW 3.5 mph - N/A   Unknown
4:00 AM 42.8 °F 39.3 °F 27.7 °F 55% 29.93 in - SW 5.8 mph - N/A   Unknown
5:00 AM 38.7 °F 35.2 °F 33.3 °F 81% 30.00 in - SW 4.6 mph - N/A   Unknown
6:00 AM 36.3 °F 31.6 °F 30.4 °F 79% 30.04 in - NE 5.8 mph - N/A   Unknown
7:00 AM 33.8 °F 25.8 °F 29.5 °F 84% 30.08 in - NNE 10.4 mph 20.7 mph N/A   Unknown
8:00 AM 33.4 °F 25.4 °F 28.2 °F 81% 30.10 in - ENE 10.4 mph 20.7 mph N/A   Unknown
9:00 AM 33.1 °F 25.5 °F 27.0 °F 78% 30.12 in - ENE 9.2 mph - N/A   Unknown
10:00 AM 31.5 °F 23.5 °F 27.3 °F 85% 30.13 in - NE 9.2 mph - N/A   Unknown
11:00 AM 33.4 °F 25.9 °F 28.6 °F 82% 30.14 in - NNE 9.2 mph - 0.02 in   Unknown
12:00 PM 33.8 °F 27.0 °F 26.2 °F 74% 30.14 in - NE 8.1 mph - N/A   Unknown
1:00 PM 35.6 °F 28.6 °F 25.3 °F 66% 30.13 in - NE 9.2 mph - N/A   Unknown
2:00 PM 32.9 °F 27.5 °F 28.8 °F 85% 30.12 in - East 5.8 mph - 0.02 in   Unknown
3:00 PM 35.4 °F 29.7 °F 27.1 °F 72% 30.10 in - NE 6.9 mph - N/A   Unknown
4:00 PM 34.9 °F 29.0 °F 28.0 °F 76% 30.11 in - NE 6.9 mph - N/A   Unknown
5:00 PM 35.1 °F 28.6 °F 27.0 °F 72% 30.12 in - NE 8.1 mph - N/A   Unknown
6:00 PM 33.4 °F 27.3 °F 28.0 °F 81% 30.14 in - NE 6.9 mph - N/A   Unknown
7:00 PM 31.6 °F 26.0 °F 28.0 °F 87% 30.16 in - ENE 5.8 mph - N/A   Unknown
8:00 PM 31.8 °F 26.2 °F 27.5 °F 84% 30.16 in - ENE 5.8 mph - N/A   Unknown
9:00 PM 31.8 °F 25.4 °F 26.8 °F 82% 30.17 in - ENE 6.9 mph - N/A   Unknown
10:00 PM 31.8 °F 26.2 °F 26.6 °F 81% 30.18 in - ENE 5.8 mph - N/A   Unknown
11:00 PM 30.7 °F - 27.1 °F 86% 30.18 in - ENE 2.3 mph - N/A   Unknown